Theta_e
324 325 325 325 325 325 324 325 325 325 326 326 327 327 327 325 322 305 300 309 312 329 325 306 302 301 302 301 301 297 291 287 287 288 291 293 291 290 291 290 289 290 290 292 293
321 322 325 325 324 324 325 324 324 325 325 325 326 327 326 324 304 301 317 324 328 328 303 301 299 300 298 297 297 293 289 291 291 291 291 293 292 292 290 288 287 287 289 291 291
319 320 322 324 324 324 325 323 323 324 324 325 325 326 325 317 301 299 325 326 325 322 304 301 300 299 295 296 294 291 288 293 294 294 294 293 290 291 290 287 289 288 288 289 288
318 318 319 322 323 324 324 324 323 324 324 324 324 326 322 306 291 303 325 325 322 309 302 299 299 295 293 292 294 292 293 293 296 296 293 291 291 290 290 291 291 290 290 287 287
319 318 318 321 322 323 324 324 322 323 323 324 324 325 311 302 299 307 319 314 303 303 300 298 296 293 291 291 293 292 292 295 295 295 293 293 291 291 290 290 289 288 288 287 287
319 319 319 320 321 322 323 323 322 322 322 324 324 322 306 296 306 304 302 303 302 301 298 298 295 296 294 293 292 291 293 294 294 295 293 292 289 290 290 287 287 288 286 286 286
319 319 319 319 320 321 322 322 322 321 322 324 325 314 305 301 305 303 304 300 300 300 298 298 298 295 294 291 294 292 290 291 290 292 292 292 289 288 289 287 286 286 285 285 286
317 318 318 319 320 320 321 322 320 320 322 324 324 308 298 306 305 304 301 301 301 301 300 299 298 298 293 294 292 289 288 286 289 292 290 290 286 291 288 286 285 284 284 285 286
316 317 318 319 319 319 320 320 319 321 324 323 309 303 297 311 303 304 299 299 299 299 299 302 299 293 293 289 287 287 284 284 288 291 289 288 287 291 287 286 286 285 285 285 285
316 316 318 319 319 319 319 319 318 317 315 311 306 300 299 299 303 303 299 300 297 298 298 296 292 290 288 288 283 285 283 283 283 287 288 286 287 292 288 285 287 286 285 285 285
315 316 318 319 319 320 313 300 299 295 298 296 295 296 298 303 303 300 299 298 297 295 293 292 290 288 288 289 289 286 283 283 284 287 286 287 288 291 292 285 286 284 283 284 285
315 316 316 318 319 318 301 296 296 296 292 295 296 297 301 301 296 299 298 294 293 290 291 289 288 290 291 289 287 284 283 283 286 286 286 286 285 289 292 290 289 288 285 284 285
314 314 316 318 317 305 298 297 304 300 291 293 297 298 299 302 296 296 297 293 291 289 289 288 289 292 290 286 285 283 282 282 283 284 284 281 282 282 287 288 288 288 288 286 285
314 313 315 316 305 298 298 301 302 299 282 287 293 297 299 297 294 296 295 293 290 290 289 289 290 289 285 286 286 282 284 283 283 280 278 282 279 281 286 287 285 286 285 285 284
314 313 315 313 303 297 300 302 299 292 274 287 293 300 296 293 293 293 294 292 290 290 290 289 286 285 285 287 286 285 284 282 281 279 275 277 275 279 280 283 288 288 285 285 283
314 313 315 306 299 298 301 298 294 283 276 285 294 293 292 292 292 293 291 293 291 289 287 288 287 286 286 285 285 286 282 280 277 276 272 278 278 277 279 282 284 284 283 283 281
314 313 311 304 300 299 299 294 283 277 285 285 290 291 289 289 291 291 289 287 287 285 284 286 285 285 287 284 285 283 282 277 274 271 276 276 273 282 284 285 286 285 283 281 280
314 313 310 305 300 299 294 289 279 282 283 289 290 289 288 290 288 289 287 286 288 286 282 283 283 285 286 286 284 281 283 278 270 270 277 274 275 282 284 285 281 280 280 281 279
314 307 306 304 301 299 290 281 282 285 286 288 289 286 286 288 288 287 286 285 289 290 288 283 283 283 284 284 284 281 280 282 276 263 268 278 279 282 284 282 281 279 280 280 278
308 306 305 305 303 299 284 286 285 290 289 289 285 287 283 286 286 286 285 287 289 290 290 288 284 282 281 282 280 280 282 277 277 270 265 275 276 280 285 285 284 279 279 279 277
307 299 300 303 302 297 288 286 286 292 292 289 285 283 286 286 286 284 286 288 290 288 290 288 286 283 280 280 279 278 278 278 279 276 272 268 280 282 285 285 285 282 281 279 278
304 293 300 305 294 294 288 287 292 289 292 291 290 288 286 288 286 285 285 290 291 288 286 286 285 283 283 277 278 280 281 281 278 275 273 273 280 283 285 285 283 281 280 279 278
300 298 301 302 287 288 286 287 291 288 290 290 288 290 290 288 285 286 289 290 289 289 286 286 283 280 280 279 278 277 280 281 280 277 275 273 280 282 282 281 280 280 280 278 277
299 290 294 295 294 289 288 287 287 291 291 290 288 290 286 287 290 287 285 288 289 290 294 293 284 282 281 282 280 277 278 281 282 279 280 280 283 288 289 290 291 285 279 278 278
300 294 294 286 290 292 290 287 286 286 290 290 288 289 287 285 287 286 288 286 285 289 287 288 283 285 286 287 280 280 281 281 278 282 279 283 283 287 289 290 291 292 286 279 276
300 296 295 293 293 291 291 289 287 288 288 287 287 288 290 287 287 286 288 287 288 281 283 283 283 285 283 286 283 282 285 284 281 282 281 283 283 291 293 294 292 292 289 280 277
308 304 298 294 292 289 289 289 290 292 292 292 291 290 288 289 293 294 292 290 290 287 280 278 280 274 279 282 279 276 282 285 286 287 284 280 285 290 289 290 290 290 283 281 279
Wind_Speed
19 20 20 20 19 19 18 16 16 16 13 11 10 9 8 10 3 4 3 3 4 9 4 4 2 4 3 4 3 3 5 2 7 7 5 6 5 1 1 6 0 2 4 4 11
19 19 20 21 20 18 17 16 15 15 15 12 10 8 8 8 2 4 1 4 5 5 3 5 4 4 4 3 3 5 4 7 5 5 4 5 4 9 5 3 3 0 1 4 8
19 20 21 22 22 20 17 15 13 14 14 13 10 7 6 5 3 2 1 5 6 0 2 2 1 2 4 1 3 1 3 3 3 4 4 4 3 5 7 5 10 12 14 8 5
18 20 21 22 23 23 21 16 13 12 13 12 9 7 5 1 3 1 4 4 4 4 2 4 6 4 3 2 2 2 0 2 2 3 2 2 7 5 9 5 1 8 14 8 9
15 16 20 21 22 24 23 21 16 13 13 10 7 7 1 2 6 1 3 5 2 2 5 3 5 1 1 1 2 2 1 3 2 4 4 5 4 8 9 3 3 10 9 11 10
15 15 17 18 20 22 24 24 19 14 16 11 5 5 1 4 3 3 2 2 4 4 3 6 4 2 3 0 1 0 2 4 5 6 3 4 2 4 3 6 7 12 11 9 9
16 16 17 18 20 22 23 24 22 16 13 8 2 2 2 11 2 3 5 2 2 2 4 2 3 4 2 1 3 0 5 6 4 4 4 4 6 11 4 7 9 9 8 8 10
16 16 17 19 20 22 25 25 22 18 10 2 2 1 7 1 1 2 2 3 4 4 5 3 2 5 3 0 6 4 4 5 2 5 1 4 12 8 7 12 12 11 9 10 13
17 16 17 19 20 22 26 28 21 8 0 4 3 4 8 2 1 2 2 4 4 3 4 3 4 4 4 3 5 6 4 3 9 7 3 5 11 7 6 8 11 14 15 13 10
16 17 16 18 20 21 27 25 11 2 1 1 2 4 2 3 1 1 2 4 3 3 3 6 6 3 4 4 4 5 4 5 7 2 3 5 18 16 7 12 19 16 14 15 15
14 16 15 17 19 21 13 7 8 4 4 6 4 3 0 0 1 1 2 3 3 2 4 3 3 6 9 7 4 4 4 8 6 5 3 10 15 21 11 10 16 13 14 17 20
14 13 14 16 18 21 2 4 2 2 10 3 4 5 3 1 2 4 3 4 4 7 4 3 9 6 4 3 5 4 3 9 9 1 6 11 17 16 19 16 16 15 16 20 16
14 14 13 14 18 4 3 2 3 1 1 9 4 4 4 7 6 5 9 4 5 6 7 8 4 6 6 4 5 4 6 5 8 6 5 8 10 6 7 7 7 9 11 14 20
13 13 13 16 2 3 2 3 2 2 4 9 3 3 2 3 4 2 5 4 2 11 8 7 2 7 4 6 8 4 6 3 4 5 5 5 14 5 8 11 7 8 11 14 15
8 12 10 4 4 1 1 2 2 3 5 6 3 1 1 4 2 1 1 2 5 6 7 9 8 5 5 8 8 8 3 3 1 2 4 4 6 8 3 8 20 10 13 12 15
7 8 7 1 1 2 0 1 2 6 9 5 3 5 4 2 1 2 2 5 1 4 2 7 1 6 7 3 3 4 2 5 4 2 3 6 9 5 8 10 8 6 7 8 10
9 8 3 2 3 2 0 3 3 7 3 6 6 4 2 6 5 7 7 7 8 5 7 1 5 2 3 4 2 3 6 4 6 3 11 3 3 15 9 12 11 10 6 8 9
11 6 4 3 2 2 2 5 10 8 9 3 3 2 7 8 5 4 5 5 8 2 4 6 9 10 6 7 8 7 9 8 9 5 12 3 12 10 12 10 6 6 8 7 9
9 3 2 4 6 2 3 8 10 10 9 8 3 3 5 4 4 6 9 6 8 13 11 8 10 3 1 2 4 6 7 3 6 3 3 7 10 7 10 11 8 10 7 10 9
4 3 5 9 8 3 3 22 9 9 8 5 14 11 10 8 8 8 9 6 7 16 2 5 6 2 2 2 2 4 4 5 3 3 7 12 18 16 14 11 11 8 11 9 8
4 3 2 11 6 3 12 11 7 8 7 9 10 7 10 10 9 8 9 4 7 6 5 5 4 3 3 10 12 4 3 2 2 6 8 5 20 5 8 9 11 11 10 10 12
5 5 6 11 8 6 15 8 7 6 7 10 6 12 13 11 10 10 13 14 10 10 11 7 6 9 17 1 2 2 9 12 8 8 4 4 31 3 7 10 6 8 11 8 10
5 4 4 6 11 15 4 5 10 7 12 15 12 9 8 11 6 11 15 6 12 12 13 11 5 7 7 1 3 8 9 7 1 2 14 8 29 4 6 8 8 10 10 9 10
5 6 4 6 7 14 15 10 10 4 19 7 5 8 3 15 17 11 5 5 8 11 3 16 8 14 21 13 7 7 13 17 22 17 16 34 31 47 20 24 29 14 11 12 13
6 5 7 9 16 20 9 6 18 11 8 10 11 24 11 11 16 21 13 2 1 1 1 10 15 17 23 29 6 8 16 17 22 31 20 36 29 42 27 29 29 18 10 9 11
8 6 6 6 10 22 23 24 29 17 9 9 21 9 23 26 28 24 21 5 10 5 8 4 13 11 25 24 9 11 36 16 26 32 25 30 40 31 29 30 27 27 14 11 14
8 3 8 11 14 14 24 34 32 25 19 22 18 18 20 27 23 24 9 3 12 13 12 8 6 4 25 9 7 10 33 30 33 33 27 30 45 34 31 28 27 19 12 13 15
Wind_Direction
2 1 359 358 356 352 350 348 343 341 343 341 347 338 343 340 331 41 48 241 288 314 324 275 56 6 62 82 78 131 63 176 194 160 232 169 140 43 68 123 145 254 174 217 141
359 357 356 353 351 350 348 346 342 335 337 339 343 335 336 342 48 58 180 303 294 307 43 50 15 0 58 58 37 80 104 217 188 197 215 174 163 165 150 156 230 300 64 114 125
355 353 352 351 346 345 346 345 338 331 332 334 333 327 327 331 336 190 84 329 324 221 95 85 37 36 69 28 19 138 169 213 247 221 193 172 141 168 143 223 205 197 178 166 147
353 350 348 349 346 342 340 342 337 327 324 327 326 315 322 97 258 149 1 345 354 147 113 49 20 43 67 47 3 28 21 214 277 225 143 223 119 227 199 212 343 194 165 158 166
346 348 344 342 344 340 336 336 338 328 320 319 318 305 280 355 250 7 4 1 20 54 52 69 59 56 19 330 15 99 319 312 282 284 248 115 220 237 242 239 100 134 151 172 178
340 339 340 341 340 338 333 330 332 327 320 310 303 318 124 243 124 34 14 80 53 56 28 40 106 134 99 352 127 186 257 252 254 243 244 192 247 351 265 122 135 159 179 179 181
338 338 336 338 338 335 330 324 324 324 314 301 278 338 127 237 79 55 83 100 49 86 107 40 116 92 121 4 323 329 320 316 209 202 244 149 276 238 152 144 165 186 193 191 203
333 335 336 336 336 333 327 320 318 313 304 184 132 72 244 358 194 65 108 82 70 49 98 129 117 107 64 266 13 26 51 2 236 150 358 141 270 263 171 160 201 203 204 203 209
328 330 334 336 334 331 325 314 311 307 94 138 116 122 271 337 296 107 17 125 82 64 61 96 72 94 39 73 9 8 282 288 312 199 132 170 269 252 163 191 216 212 209 210 215
321 326 330 333 330 328 325 306 292 87 104 227 28 48 268 221 134 80 15 108 106 99 52 47 52 66 45 81 241 243 287 264 246 220 200 220 262 266 205 197 224 219 211 210 211
315 323 328 328 327 326 341 353 10 347 18 198 203 230 298 70 73 92 127 88 87 101 187 11 85 217 226 202 179 167 203 242 249 245 257 244 249 268 259 219 236 224 208 213 214
310 317 322 322 322 321 336 66 95 162 310 278 242 281 248 195 274 225 124 161 156 207 120 40 238 206 127 145 174 164 229 264 282 305 196 267 257 260 259 253 230 229 216 216 207
304 309 312 315 316 15 14 59 323 211 216 293 230 209 198 142 219 243 146 153 175 182 189 174 209 113 152 172 175 211 195 237 238 328 251 300 266 238 275 270 250 227 223 214 206
302 305 311 317 75 316 19 319 327 303 48 270 251 282 86 138 259 153 193 147 200 205 161 231 202 171 170 218 154 241 209 231 284 7 256 21 290 230 244 276 248 237 214 218 203
279 300 299 357 300 144 195 303 311 71 314 262 197 246 96 174 124 265 358 97 193 186 132 241 168 174 190 216 165 224 137 163 118 218 352 240 279 257 21 262 266 259 232 221 203
242 282 300 295 337 266 192 339 48 48 249 293 159 176 141 193 200 91 112 50 55 131 273 249 327 173 204 74 150 127 96 61 59 69 292 227 192 203 185 208 249 249 238 214 201
217 234 202 136 260 163 139 63 39 186 282 235 214 181 177 192 211 177 170 178 176 145 223 285 213 164 153 110 45 103 72 320 327 354 241 159 223 253 236 228 226 252 277 229 196
198 203 210 207 141 134 56 54 214 209 210 41 106 79 192 156 251 185 157 218 239 92 112 182 277 177 177 193 181 177 169 167 228 229 281 343 247 265 228 261 255 244 256 244 198
141 133 191 210 150 67 89 215 205 180 197 166 111 178 235 229 206 149 213 217 210 170 187 176 263 98 104 136 134 183 191 164 96 115 344 240 271 280 261 270 261 254 249 240 202
162 190 197 158 152 143 114 234 212 198 148 149 203 183 207 200 174 185 179 194 217 195 155 228 291 116 142 132 35 173 172 78 8 258 267 266 275 254 248 246 246 242 233 237 204
158 211 241 137 132 198 223 225 207 212 168 175 208 235 211 190 195 206 221 234 205 164 154 145 140 238 127 209 167 133 217 67 154 160 201 280 267 223 229 201 227 227 229 222 206
172 204 159 159 178 209 232 195 198 218 200 248 204 216 212 186 204 221 212 215 153 150 161 200 157 233 236 213 337 239 193 173 193 227 249 131 271 251 195 205 230 229 233 220 203
196 181 190 195 203 213 231 265 228 199 199 222 229 193 194 212 237 191 232 179 155 156 169 178 216 252 266 81 357 222 199 220 302 136 207 177 256 79 195 239 230 234 231 221 205
157 169 171 227 223 206 216 238 239 230 239 245 240 200 148 241 231 263 230 201 193 194 216 161 180 198 234 232 134 184 218 217 218 235 231 233 259 269 265 277 273 264 232 219 208
177 192 184 193 217 219 188 208 229 225 214 205 247 231 213 240 246 240 254 256 182 224 200 172 233 225 244 255 174 206 239 213 215 235 217 251 243 255 261 262 271 274 238 213 198
199 177 173 221 202 209 210 226 244 231 165 217 229 215 224 236 232 248 237 188 219 356 193 198 245 251 257 260 201 246 255 232 230 242 247 256 261 257 268 277 280 276 269 217 206
222 181 209 185 206 205 214 221 223 228 241 243 234 237 240 237 243 256 270 204 235 221 193 175 193 184 250 250 121 261 243 236 254 248 230 243 252 277 271 264 264 270 213 218 211